Flag for Canada Weather past 2 weeks in Saint-Georges, Quebec, Canada

Now
50 °F

Cool.


Feels Like: 49 °F
Forecast: 49 / 64 °F
Wind: 5 mph from Southeast

Location: Beauceville

Current Time: Sep 30, 2014 at 7:56:09 AM

Latest Report: Sep 30, 2014 at 5:00 AM


Visibility: N/A

Pressure: 30.03 "Hg

Humidity: 89%

Dew point: 47 °F

Location of Saint-GeorgesLocation

Historic Weather in Saint-Georges — Graph

°F

Saint-Georges temperature yesterday

Maximum temperature yesterday: 58 °F (at 1:00 AM)
Minimum temperature yesterday: 50 °F (at 4:00 PM)
Average temperature yesterday: 53 °F

Past Weeks' High & Low Weather Summary

 TemperatureHumidityPressure
High79 °F (Sep 21, 3:00 PM)100% (Sep 19, 8:00 AM)30.62 "Hg (Sep 19, 8:00 AM)
Low27 °F (Sep 19, 6:00 AM)30% (Sep 19, 4:00 PM)29.43 "Hg (Sep 22, 5:00 AM)
Average52 °F80%30.07 "Hg
* Reported Sep 15 5:00 AM — Sep 30 5:00 AM, Saint-Georges, Weather by CustomWeather, © 2014

Note: Actual official high and low records may vary slightly from our data, if they occured in-between our weather recording intervals... More about our weather records

Advertising

Saint-Georges weather history for previous 24 hours

 ConditionsComfort  
Time TempWeatherWind HumidityBarometerVisibility
5:00 AM
Sep 30
50 °FCool.5 mph89%30.03 "HgN/A
4:00 AM50 °FCool.5 mph89%30.03 "HgN/A
2:00 AM51 °FCool.6 mph88%30.03 "HgN/A
1:00 AM51 °FCool.6 mph88%30.03 "HgN/A
12:00 AM49 °FCool.8 mph93%30.03 "HgN/A
11:00 PM
Sep 29
51 °FCool.6 mph81%30.04 "HgN/A
10:00 PM51 °FCool.6 mph81%30.05 "HgN/A
9:00 PM51 °FCool.8 mph87%30.05 "HgN/A
8:00 PM52 °FCool.6 mph86%30.04 "HgN/A
7:00 PM52 °FCool.5 mph89%30.04 "HgN/A
6:00 PM51 °FCool.6 mph90%30.04 "HgN/A
4:00 PM50 °FCool.7 mph88%30.06 "HgN/A
3:00 PM50 °FCool.7 mph83%30.07 "HgN/A
1:00 PM52 °FCool.9 mph73%30.09 "HgN/A
12:00 PM53 °FCool.8 mph74%30.09 "HgN/A
11:00 AM53 °FCool.9 mph75%30.10 "HgN/A
10:00 AM54 °FCool.7 mph78%30.09 "HgN/A
9:00 AM56 °FCool.8 mph80%30.08 "HgN/A
8:00 AM55 °FCool.6 mph92%30.06 "HgN/A
7:00 AM56 °FCool.5 mph91%30.04 "HgN/A
Weather by CustomWeather, © 2014

See weather overviewHow to use our weather pages